Year,Month,Day,Hour,Minute,Value (Times are PST for windspeed in km/hr)
2019,02,10,00,00,5.20
2019,02,10,00,01,1.20
2019,02,10,00,02,1.10
2019,02,10,00,03,1.10
2019,02,10,00,04,1.20
2019,02,10,00,05,1.00
2019,02,10,00,06,1.10
2019,02,10,00,07,2.50
2019,02,10,00,08,4.50
2019,02,10,00,09,2.40
2019,02,10,00,10,2.30
2019,02,10,00,11,3.40
2019,02,10,00,12,1.30
2019,02,10,00,13,0.60
2019,02,10,00,14,2.80
2019,02,10,00,15,1.30
2019,02,10,00,16,1.40
2019,02,10,00,17,1.30
2019,02,10,00,18,1.30
2019,02,10,00,19,0.50
2019,02,10,00,20,1.60
2019,02,10,00,21,2.90
2019,02,10,00,22,1.50
2019,02,10,00,23,4.70
2019,02,10,00,24,2.10
2019,02,10,00,25,1.50
2019,02,10,00,26,1.90
2019,02,10,00,27,3.50
2019,02,10,00,28,1.70
2019,02,10,00,29,4.30
2019,02,10,00,30,3.80
2019,02,10,00,31,1.70
2019,02,10,00,32,1.60
2019,02,10,00,33,1.60
2019,02,10,00,34,1.60
2019,02,10,00,35,1.90
2019,02,10,00,36,5.00
2019,02,10,00,37,2.50
2019,02,10,00,38,1.20
2019,02,10,00,39,1.50
2019,02,10,00,40,2.60
2019,02,10,00,41,3.60
2019,02,10,00,42,1.80
2019,02,10,00,43,2.20
2019,02,10,00,44,2.30
2019,02,10,00,45,3.50
2019,02,10,00,46,3.10
2019,02,10,00,47,3.90
2019,02,10,00,48,6.10
2019,02,10,00,49,3.70
2019,02,10,00,50,1.90
2019,02,10,00,51,2.20
2019,02,10,00,52,1.10
2019,02,10,00,53,1.50
2019,02,10,00,54,1.30
2019,02,10,00,55,4.60
2019,02,10,00,56,3.60
2019,02,10,00,57,4.30
2019,02,10,00,58,1.60
2019,02,10,00,59,0.30
2019,02,10,01,00,3.50
2019,02,10,01,01,3.30
2019,02,10,01,02,1.40
2019,02,10,01,03,0.30
2019,02,10,01,04,2.30
2019,02,10,01,05,2.50
2019,02,10,01,06,1.70
2019,02,10,01,07,0.80
2019,02,10,01,08,1.50
2019,02,10,01,09,1.70
2019,02,10,01,10,1.90
2019,02,10,01,11,5.80
2019,02,10,01,12,2.30
2019,02,10,01,13,1.50
2019,02,10,01,14,1.60
2019,02,10,01,15,2.20
2019,02,10,01,16,3.30
2019,02,10,01,17,1.50
2019,02,10,01,18,1.70
2019,02,10,01,19,1.70
2019,02,10,01,20,3.90
2019,02,10,01,21,5.10
2019,02,10,01,22,2.50
2019,02,10,01,23,2.30
2019,02,10,01,24,4.40
2019,02,10,01,25,4.00
2019,02,10,01,26,3.00
2019,02,10,01,27,1.90
2019,02,10,01,28,1.60
2019,02,10,01,29,2.00
2019,02,10,01,30,1.10
2019,02,10,01,31,1.80
2019,02,10,01,32,3.40
2019,02,10,01,33,3.40
2019,02,10,01,34,3.90
2019,02,10,01,35,3.00
2019,02,10,01,36,1.90
2019,02,10,01,37,3.90
2019,02,10,01,38,2.50
2019,02,10,01,39,5.90
2019,02,10,01,40,2.60
2019,02,10,01,41,3.40
2019,02,10,01,42,1.80
2019,02,10,01,43,3.30
2019,02,10,01,44,3.30
2019,02,10,01,45,2.90
2019,02,10,01,46,3.80
2019,02,10,01,47,2.20
2019,02,10,01,48,1.70
2019,02,10,01,49,2.10
2019,02,10,01,50,1.10
2019,02,10,01,51,2.50
2019,02,10,01,52,1.40
2019,02,10,01,53,3.00
2019,02,10,01,54,2.40
2019,02,10,01,55,3.30
2019,02,10,01,56,1.80
2019,02,10,01,57,1.90
2019,02,10,01,58,3.40
2019,02,10,01,59,1.20
2019,02,10,02,00,3.30
2019,02,10,02,01,2.30
2019,02,10,02,02,3.50
2019,02,10,02,03,3.00
2019,02,10,02,04,4.00
2019,02,10,02,05,4.20
2019,02,10,02,06,3.20
2019,02,10,02,07,1.20
2019,02,10,02,08,2.10
2019,02,10,02,09,1.90
2019,02,10,02,10,2.80
2019,02,10,02,11,6.10
2019,02,10,02,12,2.30
2019,02,10,02,13,2.70
2019,02,10,02,14,2.70
2019,02,10,02,15,3.00
2019,02,10,02,16,2.30
2019,02,10,02,17,2.10
2019,02,10,02,18,3.80
2019,02,10,02,19,4.00
2019,02,10,02,20,3.00
2019,02,10,02,21,2.00
2019,02,10,02,22,1.70
2019,02,10,02,23,2.90
2019,02,10,02,24,2.80
2019,02,10,02,25,3.90
2019,02,10,02,26,2.30
2019,02,10,02,27,2.10
2019,02,10,02,28,1.70
2019,02,10,02,29,0.80
2019,02,10,02,30,0.60
2019,02,10,02,31,1.90
2019,02,10,02,32,0.80
2019,02,10,02,33,1.90
2019,02,10,02,34,2.00
2019,02,10,02,35,4.00
2019,02,10,02,36,1.10
2019,02,10,02,37,0.70
2019,02,10,02,38,1.70
2019,02,10,02,39,2.00
2019,02,10,02,40,1.70
2019,02,10,02,41,2.00
2019,02,10,02,42,2.00
2019,02,10,02,43,2.60
2019,02,10,02,44,3.50
2019,02,10,02,45,2.40
2019,02,10,02,46,3.60
2019,02,10,02,47,2.90
2019,02,10,02,48,3.00
2019,02,10,02,49,2.70
2019,02,10,02,50,1.70
2019,02,10,02,51,2.40
2019,02,10,02,52,1.70
2019,02,10,02,53,3.40
2019,02,10,02,54,1.90
2019,02,10,02,55,1.10
2019,02,10,02,56,1.60
2019,02,10,02,57,1.30
2019,02,10,02,58,1.20
2019,02,10,02,59,2.90
2019,02,10,03,00,1.50
2019,02,10,03,01,1.10
2019,02,10,03,02,3.00
2019,02,10,03,03,2.20
2019,02,10,03,04,4.40
2019,02,10,03,05,3.50
2019,02,10,03,06,2.40
2019,02,10,03,07,2.30
2019,02,10,03,08,3.60
2019,02,10,03,09,1.80
2019,02,10,03,10,4.00
2019,02,10,03,11,3.60
2019,02,10,03,12,1.40
2019,02,10,03,13,1.50
2019,02,10,03,14,1.70
2019,02,10,03,15,1.20
2019,02,10,03,16,3.50
2019,02,10,03,17,3.00
2019,02,10,03,18,1.50
2019,02,10,03,19,3.90
2019,02,10,03,20,1.80
2019,02,10,03,21,1.60
2019,02,10,03,22,1.40
2019,02,10,03,23,1.10
2019,02,10,03,24,2.10
2019,02,10,03,25,2.80
2019,02,10,03,26,4.20
2019,02,10,03,27,2.60
2019,02,10,03,28,1.90
2019,02,10,03,29,2.70
2019,02,10,03,30,2.10
2019,02,10,03,31,3.20
2019,02,10,03,32,2.50
2019,02,10,03,33,3.60
2019,02,10,03,34,1.20
2019,02,10,03,35,2.60
2019,02,10,03,36,1.90
2019,02,10,03,37,1.60
2019,02,10,03,38,3.90
2019,02,10,03,39,2.80
2019,02,10,03,40,2.50
2019,02,10,03,41,1.60
2019,02,10,03,42,2.00
2019,02,10,03,43,1.10
2019,02,10,03,44,1.50
2019,02,10,03,45,2.10
2019,02,10,03,46,2.40
2019,02,10,03,47,3.10
2019,02,10,03,48,3.90
2019,02,10,03,49,4.30
2019,02,10,03,50,4.50
2019,02,10,03,51,5.10
2019,02,10,03,52,4.50
2019,02,10,03,53,3.90
2019,02,10,03,54,4.10
2019,02,10,03,55,3.10
2019,02,10,03,56,5.00
2019,02,10,03,57,2.60
2019,02,10,03,58,6.00
2019,02,10,03,59,5.40
2019,02,10,04,00,4.20
2019,02,10,04,01,5.70
2019,02,10,04,02,4.30
2019,02,10,04,03,2.80
2019,02,10,04,04,1.60
2019,02,10,04,05,1.60
2019,02,10,04,06,1.60
2019,02,10,04,07,1.60
2019,02,10,04,08,1.60
2019,02,10,04,09,1.60
2019,02,10,04,10,1.60
2019,02,10,04,11,1.90
2019,02,10,04,12,5.30
2019,02,10,04,13,5.90
2019,02,10,04,14,1.90
2019,02,10,04,15,1.60
2019,02,10,04,16,3.30
2019,02,10,04,17,7.40
2019,02,10,04,18,3.50
2019,02,10,04,19,2.10
2019,02,10,04,20,2.30
2019,02,10,04,21,4.30
2019,02,10,04,22,1.80
2019,02,10,04,23,1.40
2019,02,10,04,24,3.50
2019,02,10,04,25,4.00
2019,02,10,04,26,3.30
2019,02,10,04,27,7.60
2019,02,10,04,28,2.00
2019,02,10,04,29,3.10
2019,02,10,04,30,4.60
2019,02,10,04,31,4.80
2019,02,10,04,32,7.30
2019,02,10,04,33,6.00
2019,02,10,04,34,6.30
2019,02,10,04,35,2.90
2019,02,10,04,36,5.20
2019,02,10,04,37,4.30
2019,02,10,04,38,6.80
2019,02,10,04,39,8.50
2019,02,10,04,40,5.00
2019,02,10,04,41,8.40
2019,02,10,04,42,5.70
2019,02,10,04,43,6.10
2019,02,10,04,44,6.40
2019,02,10,04,45,5.60
2019,02,10,04,46,6.40
2019,02,10,04,47,8.20
2019,02,10,04,48,8.40
2019,02,10,04,49,8.90
2019,02,10,04,50,15.00
2019,02,10,04,51,7.10
2019,02,10,04,52,8.50
2019,02,10,04,53,10.90
2019,02,10,04,54,11.00
2019,02,10,04,55,9.30
2019,02,10,04,56,10.40
2019,02,10,04,57,10.90
2019,02,10,04,58,9.80
2019,02,10,04,59,11.40
2019,02,10,05,00,8.60
2019,02,10,05,01,11.30
2019,02,10,05,02,12.20
2019,02,10,05,03,15.00
2019,02,10,05,04,10.70
2019,02,10,05,05,11.40
2019,02,10,05,06,11.40
2019,02,10,05,07,13.30
2019,02,10,05,08,10.30
2019,02,10,05,09,10.00
2019,02,10,05,10,11.40
2019,02,10,05,11,13.40
2019,02,10,05,12,11.20
2019,02,10,05,13,11.60
2019,02,10,05,14,14.10
2019,02,10,05,15,10.20
2019,02,10,05,16,10.50
2019,02,10,05,17,7.20
2019,02,10,05,18,9.80
2019,02,10,05,19,14.10
2019,02,10,05,20,10.10
2019,02,10,05,21,13.70
2019,02,10,05,22,15.30
2019,02,10,05,23,11.00
2019,02,10,05,24,8.40
2019,02,10,05,25,13.00
2019,02,10,05,26,9.60
2019,02,10,05,27,7.60
2019,02,10,05,28,7.80
2019,02,10,05,29,7.20
2019,02,10,05,30,8.20
2019,02,10,05,31,8.00
2019,02,10,05,32,7.30
2019,02,10,05,33,9.20
2019,02,10,05,34,9.90
2019,02,10,05,35,7.20
2019,02,10,05,36,10.00
2019,02,10,05,37,7.00
2019,02,10,05,38,10.10
2019,02,10,05,39,6.90
2019,02,10,05,40,4.30
2019,02,10,05,41,9.80
2019,02,10,05,42,6.00
2019,02,10,05,43,6.20
2019,02,10,05,44,6.60
2019,02,10,05,45,5.70
2019,02,10,05,46,7.90
2019,02,10,05,47,4.50
2019,02,10,05,48,5.90
2019,02,10,05,49,5.80
2019,02,10,05,50,6.30
2019,02,10,05,51,6.40
2019,02,10,05,52,7.40
2019,02,10,05,53,5.90
2019,02,10,05,54,4.70
2019,02,10,05,55,9.70
2019,02,10,05,56,9.70
2019,02,10,05,57,5.50
2019,02,10,05,58,7.60
2019,02,10,05,59,9.10
2019,02,10,06,00,11.50
2019,02,10,06,01,6.80
2019,02,10,06,02,6.40
2019,02,10,06,03,10.10
2019,02,10,06,04,8.10
2019,02,10,06,05,13.60
2019,02,10,06,06,11.20
2019,02,10,06,07,11.10
2019,02,10,06,08,15.30
2019,02,10,06,09,9.60
2019,02,10,06,10,9.40
2019,02,10,06,11,12.20
2019,02,10,06,12,11.70
2019,02,10,06,13,12.70
2019,02,10,06,14,13.60
2019,02,10,06,15,11.10
2019,02,10,06,16,9.80
2019,02,10,06,17,11.60
2019,02,10,06,18,10.10
2019,02,10,06,19,9.80
2019,02,10,06,20,6.40
2019,02,10,06,21,12.30
2019,02,10,06,22,13.90
2019,02,10,06,23,10.10
2019,02,10,06,24,10.20
2019,02,10,06,25,10.30
2019,02,10,06,26,9.00
2019,02,10,06,27,8.60
2019,02,10,06,28,10.10
2019,02,10,06,29,13.90
2019,02,10,06,30,11.70
2019,02,10,06,31,11.20
2019,02,10,06,32,9.20
2019,02,10,06,33,11.10
2019,02,10,06,34,10.30
2019,02,10,06,35,9.50
2019,02,10,06,36,11.30
2019,02,10,06,37,12.20
2019,02,10,06,38,11.90
2019,02,10,06,39,12.40
2019,02,10,06,40,10.70
2019,02,10,06,41,13.40
2019,02,10,06,42,11.70
2019,02,10,06,43,12.50
2019,02,10,06,44,11.90
2019,02,10,06,45,11.40
2019,02,10,06,46,13.00
2019,02,10,06,47,10.90
2019,02,10,06,48,9.40
2019,02,10,06,49,8.10
2019,02,10,06,50,6.90
2019,02,10,06,51,8.50
2019,02,10,06,52,14.50
2019,02,10,06,53,11.20
2019,02,10,06,54,12.00
2019,02,10,06,55,10.80
2019,02,10,06,56,10.80
2019,02,10,06,57,10.20
2019,02,10,06,58,8.10
2019,02,10,06,59,15.00
2019,02,10,07,00,10.30
2019,02,10,07,01,7.70
2019,02,10,07,02,6.50
2019,02,10,07,03,11.70
2019,02,10,07,04,9.30
2019,02,10,07,05,7.50
2019,02,10,07,06,9.80
2019,02,10,07,07,11.30
2019,02,10,07,08,10.30
2019,02,10,07,09,6.80
2019,02,10,07,10,8.90
2019,02,10,07,11,10.00
2019,02,10,07,12,9.30
2019,02,10,07,13,7.20
2019,02,10,07,14,9.50
2019,02,10,07,15,9.00
2019,02,10,07,16,10.40
2019,02,10,07,17,11.80
2019,02,10,07,18,8.20
2019,02,10,07,19,10.90
2019,02,10,07,20,11.30
2019,02,10,07,21,10.70
2019,02,10,07,22,7.70
2019,02,10,07,23,6.40
2019,02,10,07,24,6.40
2019,02,10,07,25,6.40
2019,02,10,07,26,6.40
2019,02,10,07,27,6.30
2019,02,10,07,28,7.80
2019,02,10,07,29,9.80
2019,02,10,07,30,9.70
2019,02,10,07,31,8.70
2019,02,10,07,32,9.30
2019,02,10,07,33,9.10
2019,02,10,07,34,11.70
2019,02,10,07,35,7.60
2019,02,10,07,36,10.30
2019,02,10,07,37,11.50
2019,02,10,07,38,10.60
2019,02,10,07,39,10.90
2019,02,10,07,40,10.60
2019,02,10,07,41,10.40
2019,02,10,07,42,9.70
2019,02,10,07,43,11.70
2019,02,10,07,44,8.90
2019,02,10,07,45,9.70
2019,02,10,07,46,11.30
2019,02,10,07,47,9.30
2019,02,10,07,48,11.00
2019,02,10,07,49,8.50
2019,02,10,07,50,12.20
2019,02,10,07,51,12.70
2019,02,10,07,52,8.40
2019,02,10,07,53,5.90
2019,02,10,07,54,11.90
2019,02,10,07,55,9.50
2019,02,10,07,56,11.80
2019,02,10,07,57,10.80
2019,02,10,07,58,9.10
2019,02,10,07,59,7.60
2019,02,10,08,00,8.00
2019,02,10,08,01,4.60
2019,02,10,08,02,10.90
2019,02,10,08,03,6.70
2019,02,10,08,04,11.00
2019,02,10,08,05,12.70
2019,02,10,08,06,7.00
2019,02,10,08,07,8.10
2019,02,10,08,08,5.70
2019,02,10,08,09,8.00
2019,02,10,08,10,11.80
2019,02,10,08,11,7.60
2019,02,10,08,12,7.60
2019,02,10,08,13,7.60
2019,02,10,08,14,9.70
2019,02,10,08,15,8.60
2019,02,10,08,16,7.70
2019,02,10,08,17,10.50
2019,02,10,08,18,6.00
2019,02,10,08,19,10.90
2019,02,10,08,20,8.00
2019,02,10,08,21,8.40
2019,02,10,08,22,13.00
2019,02,10,08,23,8.40
2019,02,10,08,24,8.90
2019,02,10,08,25,8.60
2019,02,10,08,26,11.10
2019,02,10,08,27,8.50
2019,02,10,08,28,6.80
2019,02,10,08,29,9.40
2019,02,10,08,30,5.00
2019,02,10,08,31,5.40
2019,02,10,08,32,6.20
2019,02,10,08,33,10.70
2019,02,10,08,34,6.40
2019,02,10,08,35,9.90
2019,02,10,08,36,6.80
2019,02,10,08,37,11.60
2019,02,10,08,38,10.90
2019,02,10,08,39,11.10
2019,02,10,08,40,9.90
2019,02,10,08,41,9.90
2019,02,10,08,42,8.00
2019,02,10,08,43,6.50
2019,02,10,08,44,10.00
2019,02,10,08,45,9.50
2019,02,10,08,46,8.30
2019,02,10,08,47,9.80
2019,02,10,08,48,9.20
2019,02,10,08,49,7.70
2019,02,10,08,50,8.00
2019,02,10,08,51,8.90
2019,02,10,08,52,10.90
2019,02,10,08,53,9.20
2019,02,10,08,54,9.60
2019,02,10,08,55,10.40
2019,02,10,08,56,15.90
2019,02,10,08,57,7.80
2019,02,10,08,58,13.20
2019,02,10,08,59,12.00
2019,02,10,09,00,11.50
2019,02,10,09,01,9.90
2019,02,10,09,02,9.40
2019,02,10,09,03,8.90
2019,02,10,09,04,10.30
2019,02,10,09,05,12.20
2019,02,10,09,06,10.10
2019,02,10,09,07,9.60
2019,02,10,09,08,8.40
2019,02,10,09,09,8.20
2019,02,10,09,10,10.50
2019,02,10,09,11,7.60
2019,02,10,09,12,10.40
2019,02,10,09,13,7.50
2019,02,10,09,14,7.20
2019,02,10,09,15,13.10
2019,02,10,09,16,10.80
2019,02,10,09,17,15.40
2019,02,10,09,18,7.60
2019,02,10,09,19,6.90
2019,02,10,09,20,8.50
2019,02,10,09,21,7.80
2019,02,10,09,22,10.30
2019,02,10,09,23,12.00
2019,02,10,09,24,7.30
2019,02,10,09,25,10.30
2019,02,10,09,26,8.20
2019,02,10,09,27,10.60
2019,02,10,09,28,11.30
2019,02,10,09,29,9.40
2019,02,10,09,30,6.30
2019,02,10,09,31,6.20
2019,02,10,09,32,12.00
2019,02,10,09,33,6.70
2019,02,10,09,34,10.10
2019,02,10,09,35,6.30
2019,02,10,09,36,7.30
2019,02,10,09,37,9.30
2019,02,10,09,38,8.60
2019,02,10,09,39,8.50
2019,02,10,09,40,6.70
2019,02,10,09,41,9.30
2019,02,10,09,42,11.10
2019,02,10,09,43,10.70
2019,02,10,09,44,7.50
2019,02,10,09,45,9.40
2019,02,10,09,46,8.00
2019,02,10,09,47,8.60
2019,02,10,09,48,9.30
2019,02,10,09,49,7.30
2019,02,10,09,50,10.70
2019,02,10,09,51,8.10
2019,02,10,09,52,8.50
2019,02,10,09,53,9.00
2019,02,10,09,54,8.40
2019,02,10,09,55,11.90
2019,02,10,09,56,8.50
2019,02,10,09,57,6.80
2019,02,10,09,58,9.40
2019,02,10,09,59,7.20
2019,02,10,10,00,5.20
2019,02,10,10,01,8.00
2019,02,10,10,02,7.90
2019,02,10,10,03,8.90
2019,02,10,10,04,8.80
2019,02,10,10,05,8.40
2019,02,10,10,06,12.40
2019,02,10,10,07,10.90
2019,02,10,10,08,11.10
2019,02,10,10,09,8.50
2019,02,10,10,10,11.00
2019,02,10,10,11,11.70
2019,02,10,10,12,10.80
2019,02,10,10,13,10.70
2019,02,10,10,14,11.50
2019,02,10,10,15,7.90
2019,02,10,10,16,13.30
2019,02,10,10,17,9.30
2019,02,10,10,18,13.10
2019,02,10,10,19,10.80
2019,02,10,10,20,11.10
2019,02,10,10,21,11.00
2019,02,10,10,22,12.30
2019,02,10,10,23,14.10
2019,02,10,10,24,9.40
2019,02,10,10,25,10.40
2019,02,10,10,26,14.10
2019,02,10,10,27,12.90
2019,02,10,10,28,9.50
2019,02,10,10,29,9.30
2019,02,10,10,30,8.70
2019,02,10,10,31,10.20
2019,02,10,10,32,11.20
2019,02,10,10,33,6.20
2019,02,10,10,34,7.00
2019,02,10,10,35,11.30
2019,02,10,10,36,10.50
2019,02,10,10,37,10.10
2019,02,10,10,38,8.10
2019,02,10,10,39,11.10
2019,02,10,10,40,8.50
2019,02,10,10,41,12.10
2019,02,10,10,42,9.30
2019,02,10,10,43,10.40
2019,02,10,10,44,10.50
2019,02,10,10,45,16.50
2019,02,10,10,46,14.50
2019,02,10,10,47,12.60
2019,02,10,10,48,8.40
2019,02,10,10,49,7.20
2019,02,10,10,50,8.00
2019,02,10,10,51,13.00
2019,02,10,10,52,8.20
2019,02,10,10,53,4.40
2019,02,10,10,54,4.80
2019,02,10,10,55,7.30
2019,02,10,10,56,4.60
2019,02,10,10,57,5.80
2019,02,10,10,58,4.40
2019,02,10,10,59,4.80
2019,02,10,11,00,8.10
2019,02,10,11,01,7.40
2019,02,10,11,02,7.20
2019,02,10,11,03,6.40
2019,02,10,11,04,5.20
2019,02,10,11,05,9.70
2019,02,10,11,06,7.60
2019,02,10,11,07,8.30
2019,02,10,11,08,9.40
2019,02,10,11,09,5.60
2019,02,10,11,10,3.20
2019,02,10,11,11,5.10
2019,02,10,11,12,9.20
2019,02,10,11,13,7.40
2019,02,10,11,14,7.00
2019,02,10,11,15,6.60
2019,02,10,11,16,8.00
2019,02,10,11,17,6.80
2019,02,10,11,18,11.00
2019,02,10,11,19,10.20
2019,02,10,11,20,7.00
2019,02,10,11,21,11.00
2019,02,10,11,22,15.90
2019,02,10,11,23,10.90
2019,02,10,11,24,7.00
2019,02,10,11,25,11.30
2019,02,10,11,26,7.50
2019,02,10,11,27,4.20
2019,02,10,11,28,4.40
2019,02,10,11,29,11.60
2019,02,10,11,30,10.30
2019,02,10,11,31,14.60
2019,02,10,11,32,12.20
2019,02,10,11,33,7.30
2019,02,10,11,34,8.30
2019,02,10,11,35,15.30
2019,02,10,11,36,14.30
2019,02,10,11,37,8.50
2019,02,10,11,38,8.40
2019,02,10,11,39,8.60
2019,02,10,11,40,7.30
2019,02,10,11,41,10.10
2019,02,10,11,42,12.30
2019,02,10,11,43,13.40
2019,02,10,11,44,17.40
2019,02,10,11,45,14.50
2019,02,10,11,46,13.40
2019,02,10,11,47,8.90
2019,02,10,11,48,8.60
2019,02,10,11,49,5.60
2019,02,10,11,50,9.20
2019,02,10,11,51,12.20
2019,02,10,11,52,10.50
2019,02,10,11,53,12.30
2019,02,10,11,54,16.90
2019,02,10,11,55,16.40
2019,02,10,11,56,9.10
2019,02,10,11,57,11.30
2019,02,10,11,58,7.50
2019,02,10,11,59,9.70
2019,02,10,12,00,5.60
2019,02,10,12,01,6.40
2019,02,10,12,02,8.40
2019,02,10,12,03,7.10
2019,02,10,12,04,14.10
2019,02,10,12,05,8.90
2019,02,10,12,06,13.40
2019,02,10,12,07,13.80
2019,02,10,12,08,11.80
2019,02,10,12,09,13.80
2019,02,10,12,10,9.30
2019,02,10,12,11,8.20
2019,02,10,12,12,11.70
2019,02,10,12,13,10.10
2019,02,10,12,14,12.70
2019,02,10,12,15,11.80
2019,02,10,12,16,15.60
2019,02,10,12,17,15.80
2019,02,10,12,18,10.40
2019,02,10,12,19,8.20
2019,02,10,12,20,14.70
2019,02,10,12,21,12.20
2019,02,10,12,22,12.20
2019,02,10,12,23,8.90
2019,02,10,12,24,11.90
2019,02,10,12,25,7.70
2019,02,10,12,26,11.90
2019,02,10,12,27,8.30
2019,02,10,12,28,8.30
2019,02,10,12,29,11.10
2019,02,10,12,30,11.40
2019,02,10,12,31,8.40
2019,02,10,12,32,6.50
2019,02,10,12,33,10.80
2019,02,10,12,34,13.80
2019,02,10,12,35,15.50
2019,02,10,12,36,11.90
2019,02,10,12,37,10.90
2019,02,10,12,38,9.20
2019,02,10,12,39,8.10
2019,02,10,12,40,15.00
2019,02,10,12,41,10.20
2019,02,10,12,42,12.10
2019,02,10,12,43,9.00
2019,02,10,12,44,8.50
2019,02,10,12,45,9.10
2019,02,10,12,46,10.20
2019,02,10,12,47,8.90
2019,02,10,12,48,11.40
2019,02,10,12,49,7.60
2019,02,10,12,50,10.10
2019,02,10,12,51,10.30
2019,02,10,12,52,9.80
2019,02,10,12,53,11.80
2019,02,10,12,54,8.50
2019,02,10,12,55,11.40
2019,02,10,12,56,8.40
2019,02,10,12,57,6.40
2019,02,10,12,58,6.40
2019,02,10,12,59,8.40
2019,02,10,13,00,10.30
2019,02,10,13,01,10.90
2019,02,10,13,02,9.40
2019,02,10,13,03,14.40
2019,02,10,13,04,11.90
2019,02,10,13,05,7.70
2019,02,10,13,06,8.40
2019,02,10,13,07,9.40
2019,02,10,13,08,6.10
2019,02,10,13,09,8.20
2019,02,10,13,10,6.80
2019,02,10,13,11,7.20
2019,02,10,13,12,8.00
2019,02,10,13,13,9.00
2019,02,10,13,14,10.30
2019,02,10,13,15,8.30
2019,02,10,13,16,4.70
2019,02,10,13,17,6.70
2019,02,10,13,18,6.10
2019,02,10,13,19,5.50
2019,02,10,13,20,6.20
2019,02,10,13,21,7.90
2019,02,10,13,22,5.60
2019,02,10,13,23,7.70
2019,02,10,13,24,9.70
2019,02,10,13,25,8.90
2019,02,10,13,26,5.60
2019,02,10,13,27,6.70
2019,02,10,13,28,6.40
2019,02,10,13,29,5.30
2019,02,10,13,30,7.30
2019,02,10,13,31,3.70
2019,02,10,13,32,9.40
2019,02,10,13,33,6.00
2019,02,10,13,34,7.10
2019,02,10,13,35,6.10
2019,02,10,13,36,6.90
2019,02,10,13,37,6.40
2019,02,10,13,38,4.60
2019,02,10,13,39,4.90
2019,02,10,13,40,4.90
2019,02,10,13,41,7.10
2019,02,10,13,42,8.10
2019,02,10,13,43,6.40
2019,02,10,13,44,8.00
2019,02,10,13,45,7.40
2019,02,10,13,46,6.00
2019,02,10,13,47,6.70
2019,02,10,13,48,7.90
2019,02,10,13,49,5.90
2019,02,10,13,50,8.20
2019,02,10,13,51,8.70
2019,02,10,13,52,8.10
2019,02,10,13,53,8.70
2019,02,10,13,54,6.60
2019,02,10,13,55,8.90
2019,02,10,13,56,6.80
2019,02,10,13,57,6.30
2019,02,10,13,58,5.30
2019,02,10,13,59,8.10
2019,02,10,14,00,11.50
2019,02,10,14,01,6.20
2019,02,10,14,02,5.70
2019,02,10,14,03,9.50
2019,02,10,14,04,6.70
2019,02,10,14,05,6.50
2019,02,10,14,06,5.20
2019,02,10,14,07,9.20
2019,02,10,14,08,8.50
2019,02,10,14,09,4.70
2019,02,10,14,10,4.60
2019,02,10,14,11,6.50
2019,02,10,14,12,7.10
2019,02,10,14,13,6.00
2019,02,10,14,14,4.10
2019,02,10,14,15,3.90
2019,02,10,14,16,5.60
2019,02,10,14,17,6.90
2019,02,10,14,18,5.30
2019,02,10,14,19,4.00
2019,02,10,14,20,3.50
2019,02,10,14,21,5.00
2019,02,10,14,22,6.60
2019,02,10,14,23,4.80
2019,02,10,14,24,5.90
2019,02,10,14,25,6.70
2019,02,10,14,26,6.50
2019,02,10,14,27,6.60
2019,02,10,14,28,3.80
2019,02,10,14,29,5.70
2019,02,10,14,30,5.20
2019,02,10,14,31,4.70
2019,02,10,14,32,6.00
2019,02,10,14,33,7.50
2019,02,10,14,34,5.70
2019,02,10,14,35,7.70
2019,02,10,14,36,6.90
2019,02,10,14,37,6.10
2019,02,10,14,38,7.80
2019,02,10,14,39,7.20
2019,02,10,14,40,3.50
2019,02,10,14,41,7.50
2019,02,10,14,42,6.40
2019,02,10,14,43,4.40
2019,02,10,14,44,2.80
2019,02,10,14,45,6.20
2019,02,10,14,46,5.10
2019,02,10,14,47,3.00
2019,02,10,14,48,6.00
2019,02,10,14,49,5.00
2019,02,10,14,50,6.70
2019,02,10,14,51,5.00
2019,02,10,14,52,8.30
2019,02,10,14,53,8.40
2019,02,10,14,54,8.00
2019,02,10,14,55,8.20
2019,02,10,14,56,5.90
2019,02,10,14,57,5.50
2019,02,10,14,58,5.00
2019,02,10,14,59,6.40
2019,02,10,15,00,10.20
2019,02,10,15,01,8.00
2019,02,10,15,02,8.40
2019,02,10,15,03,8.90
2019,02,10,15,04,6.40
2019,02,10,15,05,3.00
2019,02,10,15,06,4.00
2019,02,10,15,07,7.60
2019,02,10,15,08,9.80
2019,02,10,15,09,8.80
2019,02,10,15,10,10.40
2019,02,10,15,11,12.20
2019,02,10,15,12,9.00
2019,02,10,15,13,8.60
2019,02,10,15,14,10.70
2019,02,10,15,15,9.20
2019,02,10,15,16,9.30
2019,02,10,15,17,11.50
2019,02,10,15,18,8.40
2019,02,10,15,19,9.90
2019,02,10,15,20,6.80
2019,02,10,15,21,13.10
2019,02,10,15,22,6.60
2019,02,10,15,23,7.80
2019,02,10,15,24,6.40
2019,02,10,15,25,6.20
2019,02,10,15,26,8.40
2019,02,10,15,27,10.20
2019,02,10,15,28,9.30
2019,02,10,15,29,5.40
2019,02,10,15,30,6.70
2019,02,10,15,31,4.30
2019,02,10,15,32,9.10
2019,02,10,15,33,9.40
2019,02,10,15,34,10.90
2019,02,10,15,35,12.30
2019,02,10,15,36,6.90
2019,02,10,15,37,3.70
2019,02,10,15,38,5.60
2019,02,10,15,39,11.70
2019,02,10,15,40,9.30
2019,02,10,15,41,9.30
2019,02,10,15,42,7.80
2019,02,10,15,43,11.80
2019,02,10,15,44,11.90
2019,02,10,15,45,7.10
2019,02,10,15,46,7.60
2019,02,10,15,47,8.60
2019,02,10,15,48,11.30
2019,02,10,15,49,6.80
2019,02,10,15,50,8.40
2019,02,10,15,51,11.30
2019,02,10,15,52,7.70
2019,02,10,15,53,10.60
2019,02,10,15,54,7.10
2019,02,10,15,55,10.20
2019,02,10,15,56,6.80
2019,02,10,15,57,5.50
2019,02,10,15,58,3.90
2019,02,10,15,59,5.10
2019,02,10,16,00,6.10
2019,02,10,16,01,7.90
2019,02,10,16,02,9.00
2019,02,10,16,03,6.30
2019,02,10,16,04,8.70
2019,02,10,16,05,9.70
2019,02,10,16,06,8.80
2019,02,10,16,07,12.50
2019,02,10,16,08,9.20
2019,02,10,16,09,7.80
2019,02,10,16,10,7.70
2019,02,10,16,11,7.90
2019,02,10,16,12,10.10
2019,02,10,16,13,10.60
2019,02,10,16,14,10.70
2019,02,10,16,15,4.90
2019,02,10,16,16,8.90
2019,02,10,16,17,10.10
2019,02,10,16,18,9.60
2019,02,10,16,19,7.90
2019,02,10,16,20,5.60
2019,02,10,16,21,8.10
2019,02,10,16,22,9.20
2019,02,10,16,23,10.30
2019,02,10,16,24,6.70
2019,02,10,16,25,11.00
2019,02,10,16,26,10.90
2019,02,10,16,27,9.70
2019,02,10,16,28,9.80
2019,02,10,16,29,6.80
2019,02,10,16,30,8.60
2019,02,10,16,31,8.80
2019,02,10,16,32,7.40
2019,02,10,16,33,7.10
2019,02,10,16,34,7.90
2019,02,10,16,35,8.90
2019,02,10,16,36,6.00
2019,02,10,16,37,10.10
2019,02,10,16,38,13.00
2019,02,10,16,39,8.70
2019,02,10,16,40,10.60
2019,02,10,16,41,9.10
2019,02,10,16,42,7.60
2019,02,10,16,43,10.50
2019,02,10,16,44,7.20
2019,02,10,16,45,7.30
2019,02,10,16,46,6.50
2019,02,10,16,47,7.20
2019,02,10,16,48,8.40
2019,02,10,16,49,9.40
2019,02,10,16,50,7.80
2019,02,10,16,51,4.50
2019,02,10,16,52,7.80
2019,02,10,16,53,7.00
2019,02,10,16,54,5.60
2019,02,10,16,55,7.00
2019,02,10,16,56,5.40
2019,02,10,16,57,6.40
2019,02,10,16,58,6.20
2019,02,10,16,59,6.30
2019,02,10,17,00,4.70
2019,02,10,17,01,5.00
2019,02,10,17,02,6.90
2019,02,10,17,03,4.10
2019,02,10,17,04,5.80
2019,02,10,17,05,5.00
2019,02,10,17,06,4.80
2019,02,10,17,07,5.30
2019,02,10,17,08,5.40
2019,02,10,17,09,7.20
2019,02,10,17,10,3.10
2019,02,10,17,11,5.10
2019,02,10,17,12,3.40
2019,02,10,17,13,4.20
2019,02,10,17,14,6.40
2019,02,10,17,15,5.30
2019,02,10,17,16,3.60
2019,02,10,17,17,3.60
2019,02,10,17,18,2.40
2019,02,10,17,19,2.20
2019,02,10,17,20,1.80
2019,02,10,17,21,3.10
2019,02,10,17,22,2.70
2019,02,10,17,23,3.40
2019,02,10,17,24,2.20
2019,02,10,17,25,1.30
2019,02,10,17,26,2.50
2019,02,10,17,27,3.10
2019,02,10,17,28,3.50
2019,02,10,17,29,5.60
2019,02,10,17,30,2.30
2019,02,10,17,31,3.10
2019,02,10,17,32,3.00
2019,02,10,17,33,3.00
2019,02,10,17,34,6.00
2019,02,10,17,35,3.40
2019,02,10,17,36,7.50
2019,02,10,17,37,11.80
2019,02,10,17,38,6.80
2019,02,10,17,39,6.00
2019,02,10,17,40,2.30
2019,02,10,17,41,1.00
2019,02,10,17,42,5.10
2019,02,10,17,43,3.30
2019,02,10,17,44,5.50
2019,02,10,17,45,17.40
2019,02,10,17,46,11.40
2019,02,10,17,47,8.30
2019,02,10,17,48,7.30
2019,02,10,17,49,3.40
2019,02,10,17,50,4.70
2019,02,10,17,51,12.00
2019,02,10,17,52,14.70
2019,02,10,17,53,15.70
2019,02,10,17,54,17.10